Terminal Aerodrome Forecast
Issued by NWS Austin/San Antonio, TX

Home | Current Version | Previous Version | Text Only | Print | Product List | Glossary On
Versions: 1 2 3 4 5 6 7 8 9 10 11 12 13 14 15 16 17 18 19 20 21 22 23 24 25 26 27 28 29 30 31 32 33 34 35
819
FTUS44 KEWX 182326
TAFDRT
TAF
KDRT 182326Z 1900/1924 13010KT P6SM SCT080
     FM190200 11008KT P6SM BKN250
     FM191200 11008KT P6SM SCT025
     FM191600 14010KT P6SM SCT050=

USA.gov is the U.S. government's official web portal to all federal, state and local government web resources and services.